sampling_time,wmo_synop_id,msc_id,stn_nam,stn_elev,lat,long,stn_typ,date_tm,rpt_typ,result_time,crnt_buoy_lat,crnt_buoy_lat_qa_summary,crnt_buoy_long,crnt_buoy_long_qa_summary,avg_air_temp_pst10mts,avg_air_temp_pst10mts_qa_summary,avg_sea_sfc_temp_pst10mts,avg_sea_sfc_temp_pst10mts_qa_summary,avg_batry_volt_pst10mts,avg_batry_volt_pst10mts_qa_summary,avg_solr_panl_crnt_pst10mts,avg_solr_panl_crnt_pst10mts_qa_summary,avg_wtr_lvl_snsr_volt_pst10mts,avg_wtr_lvl_snsr_volt_pst10mts_qa_summary,avg_wave_hgt_pst20mts,avg_wave_hgt_pst20mts_qa_summary,pk_wave_hgt_pst20mts,pk_wave_hgt_pst20mts_qa_summary,sig_wave_pd_pst20mts,sig_wave_pd_pst20mts_qa_summary,sig_wave_hgt_pst20mts,sig_wave_hgt_pst20mts_qa_summary,avg_max_wave_hgt_pst20mts,avg_max_wave_hgt_pst20mts_qa_summary,avg_max_wave_pd_pst20mts,avg_max_wave_pd_pst20mts_qa_summary,avg_wave_pd_pst20mts,avg_wave_pd_pst20mts_qa_summary,pk_wave_pd_pst20mts,pk_wave_pd_pst20mts_qa_summary,avg_stn_pres_pst10mts,avg_stn_pres_pst10mts_qa_summary,avg_wnd_spd_pst10mts,avg_wnd_spd_pst10mts_qa_summary,avg_wnd_dir_pst10mts,avg_wnd_dir_pst10mts_qa_summary,max_avg_wnd_spd_pst10mts,max_avg_wnd_spd_pst10mts_qa_summary,wnd_snsr_vert_disp,wnd_snsr_vert_disp_qa_summary,pres_tend_char_pst3hrs,pres_tend_char_pst3hrs_data_flag,pres_tend_amt_pst3hrs,pres_tend_amt_pst3hrs_data_flag,avg_mslp_pst10mts,avg_mslp_pst10mts_data_flag,avg_stn_pres_pst10mts_1,avg_stn_pres_pst10mts_2,avg_wnd_spd_pst10mts_1,avg_wnd_spd_pst10mts_2,avg_wnd_dir_pst10mts_1,avg_wnd_dir_pst10mts_2,max_avg_wnd_spd_pst10mts_1,max_avg_wnd_spd_pst10mts_2,wnd_snsr_vert_disp_1,wnd_snsr_vert_disp_2
2020-10-20T00:00:00Z,44490,9300300,West Bay of Fundy,0.0,44.66056,-66.3686,18,2020-10-20T00:00:00.000Z,108,2020-10-20T00:03:58.629Z,44.66432,100,-66.36313,100,11.3,100,11.8,100,12.8,100,0.0,100,3.5,100,0.1,100,0.3,100,7.9,100,0.2,100,0.3,100,8.1,100,5.6,100,8.7,100,1028.3,100,8.6,100,96,100,10.4,100,5.0,100,8,1,-0.2,1,1028.3,1,1028.3,1028.2,8.6,8.6,96,99,10.4,10.4,5.0,4.0
2020-10-20T00:10:00Z,44490,9300300,West Bay of Fundy,0.0,44.66056,-66.3686,18,2020-10-20T00:10:00.000Z,110,2020-10-20T00:12:29.878Z,44.66458,100,-66.36336999999999,100,11.9,100,12.3,100,12.8,100,0.0,100,3.5,100,,-1,,-1,,-1,,-1,,-1,,-1,,-1,,-1,1028.2,100,9.0,100,94,100,10.4,100,5.0,100,8,1,-0.2,1,1028.2,1,1028.2,1028.2,9.0,8.6,94,96,10.4,10.1,5.0,4.0
2020-10-20T00:20:00Z,44490,9300300,West Bay of Fundy,0.0,44.66056,-66.3686,18,2020-10-20T00:20:00.000Z,110,2020-10-20T00:22:43.819Z,44.6648,100,-66.3634,100,11.3,100,11.7,100,12.8,100,0.0,100,3.5,100,,-1,,-1,,-1,,-1,,-1,,-1,,-1,,-1,1028.2,100,10.1,100,88,100,11.5,100,5.0,100,7,1,-0.5,1,1028.2,1,1028.2,1028.1,10.1,9.7,88,91,11.5,11.5,5.0,4.0
2020-10-20T00:30:00Z,44490,9300300,West Bay of Fundy,0.0,44.66056,-66.3686,18,2020-10-20T00:30:00.000Z,110,2020-10-20T00:32:44.660Z,44.66507,100,-66.3635,100,11.3,100,11.7,100,12.8,100,0.0,100,3.5,100,,-1,,-1,,-1,,-1,,-1,,-1,,-1,,-1,1027.9,100,11.5,100,86,100,13.0,100,5.0,100,8,1,-0.7,1,1027.9,1,1027.9,1027.9,11.5,11.2,86,90,13.0,13.0,5.0,4.0
2020-10-20T00:40:00Z,44490,9300300,West Bay of Fundy,0.0,44.66056,-66.3686,18,2020-10-20T00:40:00.000Z,110,2020-10-20T00:42:55.949Z,44.66517,100,-66.3635,100,11.4,100,11.8,100,12.8,100,0.0,100,3.5,100,,-1,,-1,,-1,,-1,,-1,,-1,,-1,,-1,1027.7,100,11.9,100,85,100,13.7,100,5.0,100,8,1,-0.8,1,1027.7,1,1027.7,1027.7,11.9,11.5,85,89,13.7,13.3,5.0,4.0
2020-10-20T00:50:00Z,44490,9300300,West Bay of Fundy,0.0,44.66056,-66.3686,18,2020-10-20T00:50:00.000Z,110,2020-10-20T00:52:59.826Z,44.66522,100,-66.36352,100,11.4,100,11.9,100,12.8,100,0.0,100,3.5,100,,-1,,-1,,-1,,-1,,-1,,-1,,-1,,-1,1027.5,100,13.3,100,87,100,15.8,100,5.0,100,8,1,-1.2,1,1027.5,1,1027.5,1027.4,13.3,13.0,87,91,15.8,15.5,5.0,4.0
2020-10-20T01:00:00Z,44490,9300300,West Bay of Fundy,0.0,44.66056,-66.3686,18,2020-10-20T01:00:00.000Z,108,2020-10-20T01:03:03.285Z,44.66528,100,-66.36357,100,11.5,100,11.9,100,12.8,100,0.0,100,3.5,100,0.2,100,0.5,100,7.0,100,0.3,100,0.4,100,6.9,100,6.1,100,6.9,100,1027.6,100,10.4,100,87,100,13.0,100,5.0,100,8,1,-1.0,1,1027.6,1,1027.6,1027.6,10.4,10.4,87,91,13.0,12.2,5.0,4.0
2020-10-20T01:10:00Z,44490,9300300,West Bay of Fundy,0.0,44.66056,-66.3686,18,2020-10-20T01:10:00.000Z,110,2020-10-20T01:16:00.075Z,44.66528,100,-66.36346999999999,100,11.5,100,11.9,100,12.8,100,0.0,100,3.5,100,,-1,,-1,,-1,,-1,,-1,,-1,,-1,,-1,1027.7,100,9.0,100,94,100,12.6,100,5.0,100,8,1,-0.9,1,1027.7,1,1027.7,1027.6,9.0,9.0,94,98,12.6,12.6,5.0,4.0
2020-10-20T01:20:00Z,44490,9300300,West Bay of Fundy,0.0,44.66056,-66.3686,18,2020-10-20T01:20:00.000Z,110,2020-10-20T01:23:05.379Z,44.66533,100,-66.36355,100,11.5,100,11.8,100,12.8,100,0.0,100,3.5,100,,-1,,-1,,-1,,-1,,-1,,-1,,-1,,-1,1027.6,100,8.3,100,97,100,10.1,100,5.0,100,8,1,-0.9,1,1027.6,1,1027.6,1027.6,8.3,8.3,97,101,10.1,10.1,5.0,4.0
2020-10-20T01:30:00Z,44490,9300300,West Bay of Fundy,0.0,44.66056,-66.3686,18,2020-10-20T01:30:00.000Z,110,2020-10-20T01:33:03.026Z,44.66535,100,-66.36353000000001,100,11.5,100,11.7,100,12.8,100,0.0,100,3.5,100,,-1,,-1,,-1,,-1,,-1,,-1,,-1,,-1,1027.8,100,2.9,100,111,100,5.8,100,5.0,100,6,1,-0.7,1,1027.8,1,1027.8,1027.8,2.9,2.9,111,116,5.8,6.1,5.0,4.0
2020-10-20T01:40:00Z,44490,9300300,West Bay of Fundy,0.0,44.66056,-66.3686,18,2020-10-20T01:40:00.000Z,110,2020-10-20T01:43:17.762Z,44.66542000000001,100,-66.36355,100,11.5,100,11.7,100,12.7,100,0.0,100,3.5,100,,-1,,-1,,-1,,-1,,-1,,-1,,-1,,-1,1027.8,100,2.2,100,210,100,3.6,100,5.0,100,5,1,-0.8,1,1027.8,1,1027.8,1027.8,2.2,2.2,210,212,3.6,3.6,5.0,4.0
2020-10-20T01:50:00Z,44490,9300300,West Bay of Fundy,0.0,44.66056,-66.3686,18,2020-10-20T01:50:00.000Z,110,2020-10-20T01:53:15.613Z,44.66545,100,-66.3636,100,11.5,100,11.7,100,12.7,100,0.0,100,3.5,100,,-1,,-1,,-1,,-1,,-1,,-1,,-1,,-1,1027.9,100,4.7,100,270,100,5.4,100,5.0,100,5,1,-0.5,1,1027.9,1,1027.9,1027.9,4.7,4.7,270,272,5.4,5.8,5.0,4.0
2020-10-20T02:00:00Z,44490,9300300,West Bay of Fundy,0.0,44.66056,-66.3686,18,2020-10-20T02:00:00.000Z,108,2020-10-20T02:03:23.189Z,44.6655,100,-66.36367,100,11.5,100,11.7,100,12.7,100,0.0,100,3.5,100,0.2,100,0.5,100,6.6,100,0.3,100,0.4,100,6.7,100,5.8,100,7.7,100,1027.8,100,5.8,100,279,100,7.9,100,5.0,100,5,1,-0.4,1,1027.8,1,1027.8,1027.8,5.8,5.8,279,281,7.9,7.9,5.0,4.0
2020-10-20T02:10:00Z,44490,9300300,West Bay of Fundy,0.0,44.66056,-66.3686,18,2020-10-20T02:10:00.000Z,110,2020-10-20T02:16:18.163Z,44.66552,100,-66.36377,100,11.5,100,11.7,100,12.8,100,0.0,100,3.5,100,,-1,,-1,,-1,,-1,,-1,,-1,,-1,,-1,1027.9,100,6.1,100,266,100,7.6,100,5.0,100,5,1,-0.4,1,1027.9,1,1027.9,1027.9,6.1,6.5,266,268,7.6,7.9,5.0,4.0
2020-10-20T02:20:00Z,44490,9300300,West Bay of Fundy,0.0,44.66056,-66.3686,18,2020-10-20T02:20:00.000Z,110,2020-10-20T02:23:20.235Z,44.66557,100,-66.36381999999999,100,11.5,100,11.7,100,12.8,100,0.0,100,3.5,100,,-1,,-1,,-1,,-1,,-1,,-1,,-1,,-1,1027.8,100,6.8,100,272,100,8.3,100,5.0,100,5,1,-0.4,1,1027.8,1,1027.8,1027.8,6.8,6.8,272,274,8.3,8.3,5.0,4.0
2020-10-20T02:30:00Z,44490,9300300,West Bay of Fundy,0.0,44.66056,-66.3686,18,2020-10-20T02:30:00.000Z,110,2020-10-20T02:33:21.845Z,44.66555,100,-66.36386999999999,100,11.5,100,11.7,100,12.8,100,0.0,100,3.5,100,,-1,,-1,,-1,,-1,,-1,,-1,,-1,,-1,1027.8,100,8.3,100,273,100,10.1,100,5.0,100,6,1,-0.6,1,1027.8,1,1027.8,1027.7,8.3,8.3,273,276,10.1,10.1,5.0,4.0
2020-10-20T02:40:00Z,44490,9300300,West Bay of Fundy,0.0,44.66056,-66.3686,18,2020-10-20T02:40:00.000Z,110,2020-10-20T02:43:26.349Z,44.66557,100,-66.36392,100,11.6,100,11.7,100,12.7,100,0.0,100,3.5,100,,-1,,-1,,-1,,-1,,-1,,-1,,-1,,-1,1027.7,100,9.7,100,271,100,13.0,100,5.0,100,6,1,-0.7,1,1027.7,1,1027.7,1027.7,9.7,10.1,271,274,13.0,13.3,5.0,4.0
2020-10-20T02:50:00Z,44490,9300300,West Bay of Fundy,0.0,44.66056,-66.3686,18,2020-10-20T02:50:00.000Z,110,2020-10-20T02:53:26.243Z,44.66558,100,-66.36398,100,11.6,100,11.8,100,12.7,100,0.0,100,3.5,100,,-1,,-1,,-1,,-1,,-1,,-1,,-1,,-1,1027.7,100,11.5,100,267,100,14.8,100,5.0,100,6,1,-0.6,1,1027.7,1,1027.7,1027.7,11.5,11.5,267,270,14.8,14.8,5.0,4.0
2020-10-20T03:00:00Z,44490,9300300,West Bay of Fundy,0.0,44.66056,-66.3686,18,2020-10-20T03:00:00.000Z,108,2020-10-20T03:03:59.467Z,44.6656,100,-66.36397,100,11.6,100,11.8,100,12.7,100,0.0,100,3.5,100,0.2,100,0.6,100,5.8,100,0.3,100,0.4,100,5.9,100,5.0,100,7.4,100,1027.7,100,12.6,100,264,100,18.0,100,5.0,100,6,1,-0.6,1,1027.7,1,1027.7,1027.7,12.6,12.6,264,266,18.0,18.4,5.0,4.0
2020-10-20T03:10:00Z,44490,9300300,West Bay of Fundy,0.0,44.66056,-66.3686,18,2020-10-20T03:10:00.000Z,110,2020-10-20T03:16:42.110Z,44.665620000000004,100,-66.36398,100,11.1,100,11.9,100,12.7,100,0.0,100,3.5,100,,-1,,-1,,-1,,-1,,-1,,-1,,-1,,-1,1027.7,100,13.3,100,256,100,17.6,100,5.0,100,6,1,-0.6,1,1027.7,1,1027.7,1027.6,13.3,13.3,256,258,17.6,17.6,5.0,4.0
2020-10-20T03:20:00Z,44490,9300300,West Bay of Fundy,0.0,44.66056,-66.3686,18,2020-10-20T03:20:00.000Z,110,2020-10-20T03:23:39.664Z,44.66563,100,-66.36402,100,11.0,100,11.9,100,12.7,100,0.0,100,3.5,100,,-1,,-1,,-1,,-1,,-1,,-1,,-1,,-1,1027.5,100,10.1,100,260,100,12.2,100,5.0,100,6,1,-0.6,1,1027.5,1,1027.5,1027.5,10.1,10.1,260,263,12.2,11.9,5.0,4.0
2020-10-20T03:30:00Z,44490,9300300,West Bay of Fundy,0.0,44.66056,-66.3686,18,2020-10-20T03:30:00.000Z,110,2020-10-20T03:32:48.126Z,44.6656,100,-66.36398,100,10.9,100,11.8,100,12.7,100,0.0,100,3.5,100,,-1,,-1,,-1,,-1,,-1,,-1,,-1,,-1,1027.5,100,10.1,100,268,100,12.2,100,5.0,100,8,1,-0.5,1,1027.5,1,1027.5,1027.4,10.1,10.1,268,270,12.2,12.2,5.0,4.0
2020-10-20T03:40:00Z,44490,9300300,West Bay of Fundy,0.0,44.66056,-66.3686,18,2020-10-20T03:40:00.000Z,110,2020-10-20T03:42:49.897Z,44.6656,100,-66.36397,100,10.7,100,11.8,100,12.7,100,0.0,100,3.5,100,,-1,,-1,,-1,,-1,,-1,,-1,,-1,,-1,1027.4,100,11.2,100,267,100,12.6,100,5.0,100,8,1,-0.3,1,1027.4,1,1027.4,1027.4,11.2,11.2,267,270,12.6,12.6,5.0,4.0
2020-10-20T03:50:00Z,44490,9300300,West Bay of Fundy,0.0,44.66056,-66.3686,18,2020-10-20T03:50:00.000Z,110,2020-10-20T03:52:40.239Z,44.6656,100,-66.36399999999999,100,10.7,100,11.8,100,12.7,100,0.0,100,3.5,100,,-1,,-1,,-1,,-1,,-1,,-1,,-1,,-1,1027.5,100,10.4,100,276,100,12.6,100,5.0,100,0,1,0.0,1,1027.5,1,1027.5,1027.5,10.4,10.8,276,278,12.6,13.0,5.0,4.0
2020-10-20T04:00:00Z,44490,9300300,West Bay of Fundy,0.0,44.66056,-66.3686,18,2020-10-20T04:00:00.000Z,108,2020-10-20T04:03:02.288Z,44.6656,100,-66.36393000000001,100,10.6,100,11.8,100,12.7,100,0.0,100,3.5,100,0.2,100,0.4,100,5.6,100,0.3,100,0.3,100,5.7,100,4.5,100,6.9,100,1027.5,100,11.9,100,280,100,13.7,100,5.0,100,8,1,-0.1,1,1027.5,1,1027.5,1027.5,11.9,11.9,280,282,13.7,14.0,5.0,4.0
2020-10-20T04:10:00Z,44490,9300300,West Bay of Fundy,0.0,44.66056,-66.3686,18,2020-10-20T04:10:00.000Z,110,2020-10-20T04:15:56.861Z,44.66558,100,-66.36385,100,10.7,100,11.7,100,12.7,100,0.0,100,3.5,100,,-1,,-1,,-1,,-1,,-1,,-1,,-1,,-1,1027.5,100,11.5,100,275,100,14.4,100,5.0,100,8,1,-0.1,1,1027.5,1,1027.5,1027.5,11.5,11.9,275,278,14.4,14.4,5.0,4.0
2020-10-20T04:20:00Z,44490,9300300,West Bay of Fundy,0.0,44.66056,-66.3686,18,2020-10-20T04:20:00.000Z,110,2020-10-20T04:23:09.473Z,44.66558,100,-66.36385,100,10.9,100,11.7,100,12.7,100,0.0,100,3.5,100,,-1,,-1,,-1,,-1,,-1,,-1,,-1,,-1,1027.5,100,13.7,100,275,100,16.6,100,5.0,100,8,1,-0.1,1,1027.5,1,1027.5,1027.5,13.7,13.7,275,278,16.6,16.6,5.0,4.0
2020-10-20T04:30:00Z,44490,9300300,West Bay of Fundy,0.0,44.66056,-66.3686,18,2020-10-20T04:30:00.000Z,110,2020-10-20T04:33:06.847Z,44.6656,100,-66.36392,100,10.8,100,11.7,100,12.7,100,0.0,100,3.5,100,,-1,,-1,,-1,,-1,,-1,,-1,,-1,,-1,1027.3,100,10.1,100,268,100,12.2,100,5.0,100,8,1,-0.5,1,1027.3,1,1027.3,1027.3,10.1,10.4,268,270,12.2,11.9,5.0,4.0
2020-10-20T04:40:00Z,44490,9300300,West Bay of Fundy,0.0,44.66056,-66.3686,18,2020-10-20T04:40:00.000Z,110,2020-10-20T04:43:10.951Z,44.6656,100,-66.36398,100,10.6,100,11.7,100,12.7,100,0.0,100,3.5,100,,-1,,-1,,-1,,-1,,-1,,-1,,-1,,-1,1027.1,100,7.9,100,264,100,10.4,100,5.0,100,8,1,-0.7,1,1027.1,1,1027.1,1027.1,7.9,7.9,264,266,10.4,10.8,5.0,4.0
2020-10-20T04:50:00Z,44490,9300300,West Bay of Fundy,0.0,44.66056,-66.3686,18,2020-10-20T04:50:00.000Z,110,2020-10-20T04:53:16.064Z,44.66565,100,-66.36407,100,10.5,100,11.7,100,12.7,100,0.0,100,3.5,100,,-1,,-1,,-1,,-1,,-1,,-1,,-1,,-1,1027.1,100,6.5,100,259,100,8.3,100,5.0,100,8,1,-0.9,1,1027.1,1,1027.1,1027.0,6.5,6.5,259,261,8.3,8.6,5.0,4.0
2020-10-20T05:00:00Z,44490,9300300,West Bay of Fundy,0.0,44.66056,-66.3686,18,2020-10-20T05:00:00.000Z,108,2020-10-20T05:04:09.857Z,44.66567,100,-66.36415,100,10.5,100,11.7,100,12.7,100,0.0,100,3.5,100,0.1,100,0.4,100,5.4,100,0.2,100,0.3,100,5.8,100,4.2,100,6.7,100,1027.1,100,6.1,100,258,100,7.6,100,5.0,100,8,1,-0.7,1,1027.1,1,1027.1,1027.1,6.1,6.5,258,260,7.6,7.6,5.0,4.0
2020-10-20T05:10:00Z,44490,9300300,West Bay of Fundy,0.0,44.66056,-66.3686,18,2020-10-20T05:10:00.000Z,110,2020-10-20T05:16:10.517Z,44.66563,100,-66.36426999999999,100,10.5,100,11.7,100,12.7,100,0.0,100,3.5,100,,-1,,-1,,-1,,-1,,-1,,-1,,-1,,-1,1027.1,100,5.0,100,258,100,6.5,100,5.0,100,8,1,-0.8,1,1027.1,1,1027.1,1027.1,5.0,5.0,258,260,6.5,6.5,5.0,4.0
2020-10-20T05:20:00Z,44490,9300300,West Bay of Fundy,0.0,44.66056,-66.3686,18,2020-10-20T05:20:00.000Z,110,2020-10-20T05:23:17.621Z,44.66563,100,-66.3644,100,10.4,100,11.7,100,12.7,100,0.0,100,3.5,100,,-1,,-1,,-1,,-1,,-1,,-1,,-1,,-1,1027.0,100,4.7,100,248,100,6.1,100,5.0,100,8,1,-0.8,1,1027.0,1,1027.0,1027.0,4.7,4.7,248,250,6.1,6.1,5.0,4.0
2020-10-20T05:30:00Z,44490,9300300,West Bay of Fundy,0.0,44.66056,-66.3686,18,2020-10-20T05:30:00.000Z,110,2020-10-20T05:33:11.678Z,44.66557,100,-66.36437,100,10.4,100,11.7,100,12.7,100,0.0,100,3.5,100,,-1,,-1,,-1,,-1,,-1,,-1,,-1,,-1,1026.9,100,4.0,100,254,100,5.4,100,5.0,100,8,1,-0.9,1,1026.9,1,1026.9,1026.9,4.0,4.0,254,255,5.4,5.4,5.0,4.0
2020-10-20T05:40:00Z,44490,9300300,West Bay of Fundy,0.0,44.66056,-66.3686,18,2020-10-20T05:40:00.000Z,110,2020-10-20T05:43:27.660Z,44.66553,100,-66.3645,100,10.4,100,11.6,100,12.7,100,0.0,100,3.5,100,,-1,,-1,,-1,,-1,,-1,,-1,,-1,,-1,1026.8,100,2.5,100,223,100,3.6,100,5.0,100,8,1,-0.9,1,1026.8,1,1026.8,1026.8,2.5,2.5,223,226,3.6,4.0,5.0,4.0
2020-10-20T05:50:00Z,44490,9300300,West Bay of Fundy,0.0,44.66056,-66.3686,18,2020-10-20T05:50:00.000Z,110,2020-10-20T05:53:27.253Z,44.6655,100,-66.36468,100,10.4,100,11.6,100,12.7,100,0.0,100,3.5,100,,-1,,-1,,-1,,-1,,-1,,-1,,-1,,-1,1026.8,100,2.9,100,165,100,5.0,100,5.0,100,7,1,-0.9,1,1026.8,1,1026.8,1026.8,2.9,2.9,165,169,5.0,5.0,5.0,4.0
2020-10-20T06:00:00Z,44490,9300300,West Bay of Fundy,0.0,44.66056,-66.3686,18,2020-10-20T06:00:00.000Z,108,2020-10-20T06:03:26.167Z,44.66547,100,-66.36478000000001,100,10.4,100,11.6,100,12.7,100,0.0,100,3.5,100,0.1,100,0.3,100,6.1,100,0.2,100,0.2,100,6.3,100,4.4,100,8.7,100,1026.7,100,5.4,100,120,100,6.8,100,5.0,100,8,1,-1.0,1,1026.7,1,1026.7,1026.7,5.4,5.4,120,124,6.8,7.2,5.0,4.0
2020-10-20T06:10:00Z,44490,9300300,West Bay of Fundy,0.0,44.66056,-66.3686,18,2020-10-20T06:10:00.000Z,110,2020-10-20T06:16:33.011Z,44.66543,100,-66.36497,100,10.5,100,11.6,100,12.7,100,0.0,100,3.5,100,,-1,,-1,,-1,,-1,,-1,,-1,,-1,,-1,1026.6,100,4.7,100,112,100,6.1,100,5.0,100,8,1,-1.1,1,1026.6,1,1026.6,1026.6,4.7,5.0,112,116,6.1,6.5,5.0,4.0
2020-10-20T06:20:00Z,44490,9300300,West Bay of Fundy,0.0,44.66056,-66.3686,18,2020-10-20T06:20:00.000Z,110,2020-10-20T06:23:32.282Z,44.66528,100,-66.3653,100,10.5,100,11.7,100,12.7,100,0.0,100,3.5,100,,-1,,-1,,-1,,-1,,-1,,-1,,-1,,-1,1026.5,100,4.7,100,117,100,5.8,100,5.0,100,8,1,-1.0,1,1026.5,1,1026.5,1026.5,4.7,4.7,117,121,5.8,5.8,5.0,4.0
2020-10-20T06:30:00Z,44490,9300300,West Bay of Fundy,0.0,44.66056,-66.3686,18,2020-10-20T06:30:00.000Z,110,2020-10-20T06:33:33.300Z,44.66505,100,-66.36575,100,10.5,100,11.7,100,12.7,100,0.0,100,3.5,100,,-1,,-1,,-1,,-1,,-1,,-1,,-1,,-1,1026.4,100,6.1,100,106,100,7.2,100,5.0,100,8,1,-1.1,1,1026.4,1,1026.4,1026.4,6.1,6.1,106,111,7.2,7.6,5.0,4.0
2020-10-20T06:40:00Z,44490,9300300,West Bay of Fundy,0.0,44.66056,-66.3686,18,2020-10-20T06:40:00.000Z,110,2020-10-20T06:43:35.445Z,44.66465,100,-66.3663,100,10.5,100,11.6,100,12.7,100,0.0,100,3.5,100,,-1,,-1,,-1,,-1,,-1,,-1,,-1,,-1,1026.5,100,3.2,100,117,100,5.4,100,5.0,100,7,1,-1.0,1,1026.5,1,1026.5,1026.4,3.2,3.2,117,120,5.4,5.8,5.0,4.0
2020-10-20T06:50:00Z,44490,9300300,West Bay of Fundy,0.0,44.66056,-66.3686,18,2020-10-20T06:50:00.000Z,110,2020-10-20T06:53:34.777Z,44.66427,100,-66.36668,100,10.6,100,11.6,100,12.7,100,0.0,100,3.5,100,,-1,,-1,,-1,,-1,,-1,,-1,,-1,,-1,1026.4,100,2.2,100,144,100,3.6,100,5.0,100,7,1,-1.1,1,1026.4,1,1026.4,1026.4,2.2,2.2,144,146,3.6,3.6,5.0,4.0
2020-10-20T07:00:00Z,44490,9300300,West Bay of Fundy,0.0,44.66056,-66.3686,18,2020-10-20T07:00:00.000Z,108,2020-10-20T07:03:46.565Z,44.66402,100,-66.36685,100,10.5,100,11.7,100,12.7,100,0.0,100,3.5,100,0.1,100,0.2,100,5.8,100,0.1,100,0.2,100,6.2,100,4.3,100,8.3,100,1026.3,100,3.2,100,170,100,4.0,100,5.0,100,7,1,-1.2,1,1026.3,1,1026.3,1026.3,3.2,3.2,170,172,4.0,4.0,5.0,4.0
2020-10-20T07:10:00Z,44490,9300300,West Bay of Fundy,0.0,44.66056,-66.3686,18,2020-10-20T07:10:00.000Z,110,2020-10-20T07:15:49.181Z,44.6637,100,-66.36693000000001,100,10.5,100,11.7,100,12.7,100,0.0,100,3.5,100,,-1,,-1,,-1,,-1,,-1,,-1,,-1,,-1,1026.4,100,1.1,100,179,100,2.9,100,5.0,100,6,1,-1.2,1,1026.4,1,1026.4,1026.4,1.1,1.1,179,177,2.9,2.9,5.0,4.0
2020-10-20T07:20:00Z,44490,9300300,West Bay of Fundy,0.0,44.66056,-66.3686,18,2020-10-20T07:20:00.000Z,110,2020-10-20T07:22:49.654Z,44.66342,100,-66.36697,100,10.5,100,11.7,100,12.7,100,0.0,100,3.5,100,,-1,,-1,,-1,,-1,,-1,,-1,,-1,,-1,1026.2,100,3.6,100,128,100,5.4,100,5.0,100,6,1,-1.3,1,1026.2,1,1026.2,1026.2,3.6,3.6,128,129,5.4,5.4,5.0,4.0
2020-10-20T07:30:00Z,44490,9300300,West Bay of Fundy,0.0,44.66056,-66.3686,18,2020-10-20T07:30:00.000Z,110,2020-10-20T07:32:47.824Z,44.66313,100,-66.3669,100,10.6,100,11.7,100,12.7,100,0.0,100,3.5,100,,-1,,-1,,-1,,-1,,-1,,-1,,-1,,-1,1026.0,100,6.5,100,121,100,8.3,100,5.0,100,7,1,-1.4,1,1026.0,1,1026.0,1025.9,6.5,6.5,121,123,8.3,8.3,5.0,4.0
2020-10-20T07:40:00Z,44490,9300300,West Bay of Fundy,0.0,44.66056,-66.3686,18,2020-10-20T07:40:00.000Z,110,2020-10-20T07:42:51.278Z,44.66305,100,-66.36695,100,10.6,100,11.8,100,12.6,100,0.0,100,3.5,100,,-1,,-1,,-1,,-1,,-1,,-1,,-1,,-1,1026.0,100,5.4,100,116,100,7.2,100,5.0,100,8,1,-1.1,1,1026.0,1,1026.0,1026.0,5.4,5.4,116,117,7.2,7.2,5.0,4.0
2020-10-20T07:50:00Z,44490,9300300,West Bay of Fundy,0.0,44.66056,-66.3686,18,2020-10-20T07:50:00.000Z,110,2020-10-20T07:52:53.934Z,44.66313,100,-66.36708,100,10.6,100,11.7,100,12.6,100,0.0,100,3.5,100,,-1,,-1,,-1,,-1,,-1,,-1,,-1,,-1,1026.1,100,4.0,100,114,100,5.8,100,5.0,100,8,1,-1.0,1,1026.1,1,1026.1,1026.0,4.0,4.3,114,115,5.8,5.8,5.0,4.0
2020-10-20T08:00:00Z,44490,9300300,West Bay of Fundy,0.0,44.66056,-66.3686,18,2020-10-20T08:00:00.000Z,108,2020-10-20T08:02:57.368Z,44.66312,100,-66.36712,100,10.6,100,11.7,100,12.6,100,0.0,100,3.5,100,0.1,100,0.2,100,6.1,100,0.1,100,0.2,100,5.9,100,4.7,100,7.1,100,1026.1,100,3.2,100,98,100,5.8,100,5.0,100,6,1,-1.0,1,1026.1,1,1026.1,1026.1,3.2,3.6,98,100,5.8,6.1,5.0,4.0
2020-10-20T08:10:00Z,44490,9300300,West Bay of Fundy,0.0,44.66056,-66.3686,18,2020-10-20T08:10:00.000Z,110,2020-10-20T08:15:58.606Z,44.663000000000004,100,-66.36702,100,10.6,100,11.7,100,12.7,100,0.0,100,3.5,100,,-1,,-1,,-1,,-1,,-1,,-1,,-1,,-1,1025.8,100,7.2,100,105,100,10.4,100,5.0,100,7,1,-1.3,1,1025.8,1,1025.8,1025.8,7.2,7.6,105,107,10.4,10.4,5.0,4.0
2020-10-20T08:20:00Z,44490,9300300,West Bay of Fundy,0.0,44.66056,-66.3686,18,2020-10-20T08:20:00.000Z,110,2020-10-20T08:22:56.323Z,44.6629,100,-66.36695,100,10.7,100,11.7,100,12.7,100,0.0,100,3.5,100,,-1,,-1,,-1,,-1,,-1,,-1,,-1,,-1,1025.6,100,10.4,100,105,100,12.2,100,5.0,100,8,1,-1.4,1,1025.6,1,1025.6,1025.6,10.4,10.8,105,107,12.2,12.6,5.0,4.0
2020-10-20T08:30:00Z,44490,9300300,West Bay of Fundy,0.0,44.66056,-66.3686,18,2020-10-20T08:30:00.000Z,110,2020-10-20T08:33:17.385Z,44.66277,100,-66.36686999999999,100,10.7,100,11.7,100,12.6,100,0.0,100,3.5,100,,-1,,-1,,-1,,-1,,-1,,-1,,-1,,-1,1025.6,100,11.2,100,113,100,14.0,100,5.0,100,6,1,-1.3,1,1025.6,1,1025.6,1025.6,11.2,11.5,113,115,14.0,14.0,5.0,4.0
2020-10-20T08:40:00Z,44490,9300300,West Bay of Fundy,0.0,44.66056,-66.3686,18,2020-10-20T08:40:00.000Z,110,2020-10-20T08:43:24.558Z,44.6627,100,-66.36681999999999,100,10.8,100,11.7,100,12.6,100,0.0,100,3.5,100,,-1,,-1,,-1,,-1,,-1,,-1,,-1,,-1,1025.8,100,10.4,100,120,100,13.0,100,5.0,100,6,1,-1.0,1,1025.8,1,1025.8,1025.7,10.4,10.4,120,123,13.0,13.0,5.0,4.0
2020-10-20T08:50:00Z,44490,9300300,West Bay of Fundy,0.0,44.66056,-66.3686,18,2020-10-20T08:50:00.000Z,110,2020-10-20T08:53:18.080Z,44.66268,100,-66.36683000000001,100,10.8,100,11.7,100,12.6,100,0.0,100,3.5,100,,-1,,-1,,-1,,-1,,-1,,-1,,-1,,-1,1025.8,100,9.0,100,117,100,10.4,100,5.0,100,6,1,-1.0,1,1025.8,1,1025.8,1025.8,9.0,9.0,117,119,10.4,10.8,5.0,4.0
2020-10-20T09:00:00Z,44490,9300300,West Bay of Fundy,0.0,44.66056,-66.3686,18,2020-10-20T09:00:00.000Z,108,2020-10-20T09:03:24.111Z,44.66273,100,-66.36686999999999,100,10.9,100,11.7,100,12.6,100,0.0,100,3.5,100,0.1,100,0.2,100,6.8,100,0.1,100,0.1,100,6.4,100,5.0,100,7.1,100,1026.1,100,6.1,100,129,100,9.4,100,5.0,100,6,1,-0.6,1,1026.1,1,1026.1,1026.1,6.1,5.8,129,132,9.4,9.4,5.0,4.0
2020-10-20T09:10:00Z,44490,9300300,West Bay of Fundy,0.0,44.66056,-66.3686,18,2020-10-20T09:10:00.000Z,110,2020-10-20T09:16:22.970Z,44.662729999999996,100,-66.36693000000001,100,10.9,100,11.7,100,12.6,100,0.0,100,3.5,100,,-1,,-1,,-1,,-1,,-1,,-1,,-1,,-1,1026.4,100,5.0,100,147,100,7.6,100,5.0,100,5,1,-0.2,1,1026.4,1,1026.4,1026.4,5.0,5.0,147,150,7.6,7.6,5.0,4.0
2020-10-20T09:20:00Z,44490,9300300,West Bay of Fundy,0.0,44.66056,-66.3686,18,2020-10-20T09:20:00.000Z,110,2020-10-20T09:23:23.654Z,44.66273,100,-66.36695,100,10.9,100,11.6,100,12.6,100,0.0,100,3.5,100,,-1,,-1,,-1,,-1,,-1,,-1,,-1,,-1,1026.3,100,8.6,100,132,100,11.2,100,5.0,100,5,1,-0.2,1,1026.3,1,1026.3,1026.2,8.6,8.6,132,134,11.2,11.5,5.0,4.0
2020-10-20T09:30:00Z,44490,9300300,West Bay of Fundy,0.0,44.66056,-66.3686,18,2020-10-20T09:30:00.000Z,110,2020-10-20T09:33:22.731Z,44.66272,100,-66.36693000000001,100,10.9,100,11.6,100,12.6,100,0.0,100,3.5,100,,-1,,-1,,-1,,-1,,-1,,-1,,-1,,-1,1026.0,100,11.5,100,124,100,14.0,100,5.0,100,5,1,-0.4,1,1026.0,1,1026.0,1025.9,11.5,11.9,124,126,14.0,14.0,5.0,4.0
2020-10-20T09:40:00Z,44490,9300300,West Bay of Fundy,0.0,44.66056,-66.3686,18,2020-10-20T09:40:00.000Z,110,2020-10-20T09:44:09.505Z,44.6627,100,-66.36688000000001,100,10.9,100,11.6,100,12.6,100,0.0,100,3.5,100,,-1,,-1,,-1,,-1,,-1,,-1,,-1,,-1,1025.9,100,10.8,100,135,100,15.1,100,5.0,100,5,1,-0.6,1,1025.9,1,1025.9,1025.9,10.8,10.8,135,138,15.1,13.7,5.0,4.0
2020-10-20T09:50:00Z,44490,9300300,West Bay of Fundy,0.0,44.66056,-66.3686,18,2020-10-20T09:50:00.000Z,110,2020-10-20T09:53:25.350Z,44.66265,100,-66.36685,100,10.9,100,11.6,100,12.6,100,0.0,100,3.5,100,,-1,,-1,,-1,,-1,,-1,,-1,,-1,,-1,1025.8,100,11.2,100,127,100,14.0,100,5.0,100,6,1,-0.6,1,1025.8,1,1025.8,1025.8,11.2,11.5,127,129,14.0,14.0,5.0,4.0
2020-10-20T10:00:00Z,44490,9300300,West Bay of Fundy,0.0,44.66056,-66.3686,18,2020-10-20T10:00:00.000Z,108,2020-10-20T10:03:42.223Z,44.66262,100,-66.36683000000001,100,10.8,100,11.7,100,12.6,100,0.0,100,3.5,100,0.1,100,0.2,100,8.4,100,0.1,100,0.2,100,8.6,100,5.7,100,10.0,100,1026.1,100,7.6,100,131,100,11.2,100,5.0,100,6,1,-0.3,1,1026.1,1,1026.1,1026.0,7.6,7.6,131,133,11.2,11.9,5.0,4.0
2020-10-20T10:10:00Z,44490,9300300,West Bay of Fundy,0.0,44.66056,-66.3686,18,2020-10-20T10:10:00.000Z,110,2020-10-20T10:16:39.367Z,44.66265,100,-66.36683000000001,100,10.7,100,11.7,100,12.6,100,0.0,100,3.5,100,,-1,,-1,,-1,,-1,,-1,,-1,,-1,,-1,1026.1,100,5.4,100,129,100,6.8,100,5.0,100,6,1,-0.3,1,1026.1,1,1026.1,1026.0,5.4,5.4,129,131,6.8,6.8,5.0,4.0
2020-10-20T10:20:00Z,44490,9300300,West Bay of Fundy,0.0,44.66056,-66.3686,18,2020-10-20T10:20:00.000Z,110,2020-10-20T10:23:38.954Z,44.66268,100,-66.36686999999999,100,10.7,100,11.7,100,12.6,100,0.0,100,3.5,100,,-1,,-1,,-1,,-1,,-1,,-1,,-1,,-1,1026.0,100,3.6,100,144,100,5.0,100,5.0,100,6,1,-0.2,1,1026.0,1,1026.0,1026.0,3.6,3.6,144,146,5.0,5.0,5.0,4.0